Time,TemperatureF,DewpointF,PressureIn,WindDirection,WindDirectionDegrees,WindSpeedMPH,WindSpeedGustMPH,Humidity,HourlyPrecipIn,Conditions,Clouds,dailyrainin,SoftwareType,DateUTC
2013-01-22 00:04:00,35.1,32.9,30.14,SSW,193,0.0,5.0,92,0.00,,,0.00,meteohub,2013-01-22 08:04:00,
2013-01-22 00:09:00,35.1,32.9,30.14,SSW,203,0.0,5.0,92,0.00,,,0.00,meteohub,2013-01-22 08:09:00,
2013-01-22 00:15:00,35.1,33.3,30.14,SSW,202,0.0,5.0,93,0.00,,,0.00,meteohub,2013-01-22 08:15:00,
2013-01-22 00:20:00,35.1,33.3,30.14,South,177,3.0,0.0,93,0.00,,,0.00,meteohub,2013-01-22 08:20:00,
2013-01-22 00:25:00,35.1,33.3,30.14,SSW,210,4.0,0.0,93,0.00,,,0.00,meteohub,2013-01-22 08:25:00,
2013-01-22 00:30:00,34.9,33.1,30.14,SW,215,4.0,4.0,93,0.00,,,0.00,meteohub,2013-01-22 08:30:00,
2013-01-22 00:35:00,34.7,32.5,30.14,SW,232,0.0,4.0,92,0.00,,,0.00,meteohub,2013-01-22 08:35:00,
2013-01-22 00:40:00,34.7,32.9,30.14,SW,224,0.0,6.0,93,0.00,,,0.00,meteohub,2013-01-22 08:40:00,
2013-01-22 00:45:00,34.7,32.9,30.14,SW,224,0.0,6.0,93,0.00,,,0.00,meteohub,2013-01-22 08:45:00,
2013-01-22 00:50:00,34.5,32.4,30.14,SW,236,2.0,6.0,92,0.00,,,0.00,meteohub,2013-01-22 08:50:00,
2013-01-22 00:55:00,34.5,32.4,30.14,South,184,3.0,5.0,92,0.00,,,0.00,meteohub,2013-01-22 08:55:00,
2013-01-22 01:00:00,34.5,32.7,30.14,South,170,3.0,4.0,93,0.00,,,0.00,meteohub,2013-01-22 09:00:00,
2013-01-22 01:05:00,34.3,32.5,30.14,SSW,206,5.0,5.0,93,0.00,,,0.00,meteohub,2013-01-22 09:05:00,
2013-01-22 01:10:00,34.3,32.5,30.14,SSW,193,3.0,5.0,93,0.00,,,0.00,meteohub,2013-01-22 09:10:00,
2013-01-22 01:15:00,34.3,32.7,30.14,South,182,4.0,5.0,94,0.00,,,0.00,meteohub,2013-01-22 09:15:00,
2013-01-22 01:20:00,34.2,32.9,30.14,SSE,157,2.0,5.0,95,0.00,,,0.00,meteohub,2013-01-22 09:20:00,
2013-01-22 01:25:00,34.2,32.9,30.14,South,175,3.0,5.0,95,0.00,,,0.00,meteohub,2013-01-22 09:25:00,
2013-01-22 01:30:00,34.2,32.9,30.14,South,180,3.0,5.0,95,0.00,,,0.00,meteohub,2013-01-22 09:30:00,
2013-01-22 01:35:00,34.2,32.9,30.14,South,180,0.0,5.0,95,0.00,,,0.00,meteohub,2013-01-22 09:35:00,
2013-01-22 01:40:00,34.2,33.1,30.14,SSE,156,4.0,4.0,96,0.00,,,0.00,meteohub,2013-01-22 09:40:00,
2013-01-22 01:45:00,34.2,33.1,30.14,SSE,159,0.0,4.0,96,0.00,,,0.00,meteohub,2013-01-22 09:45:00,
2013-01-22 01:50:00,34.2,33.1,30.14,SSE,152,0.0,4.0,96,0.00,,,0.00,meteohub,2013-01-22 09:50:00,
2013-01-22 01:55:00,34.2,33.4,30.14,SSE,152,0.0,4.0,97,0.00,,,0.00,meteohub,2013-01-22 09:55:00,
2013-01-22 02:00:00,34.2,33.4,30.14,SSE,152,0.0,3.0,97,0.00,,,0.00,meteohub,2013-01-22 10:00:00,
2013-01-22 02:05:00,34.2,33.1,30.14,SW,223,0.0,0.0,96,0.00,,,0.00,meteohub,2013-01-22 10:05:00,
2013-01-22 02:10:00,34.2,33.1,30.14,SW,222,0.0,0.0,96,0.00,,,0.00,meteohub,2013-01-22 10:10:00,
2013-01-22 02:15:00,34.3,33.1,30.14,SSE,150,0.0,0.0,95,0.00,,,0.00,meteohub,2013-01-22 10:15:00,
2013-01-22 02:20:00,34.3,33.1,30.14,SE,142,3.0,4.0,95,0.00,,,0.00,meteohub,2013-01-22 10:20:00,
2013-01-22 02:25:00,34.3,33.1,30.14,South,183,3.0,4.0,95,0.00,,,0.00,meteohub,2013-01-22 10:25:00,
2013-01-22 02:30:00,34.3,33.1,30.14,South,183,0.0,4.0,95,0.00,,,0.00,meteohub,2013-01-22 10:30:00,
2013-01-22 02:35:00,34.3,33.1,30.14,South,183,0.0,4.0,95,0.00,,,0.00,meteohub,2013-01-22 10:35:00,
2013-01-22 02:40:00,34.3,33.1,30.14,South,183,0.0,3.0,95,0.00,,,0.00,meteohub,2013-01-22 10:40:00,
2013-01-22 02:45:00,34.3,33.1,30.14,South,182,0.0,0.0,95,0.00,,,0.00,meteohub,2013-01-22 10:45:00,
2013-01-22 02:50:00,34.3,33.1,30.14,South,183,0.0,0.0,95,0.00,,,0.00,meteohub,2013-01-22 10:50:00,
2013-01-22 02:55:00,34.5,33.3,30.14,South,183,0.0,0.0,95,0.00,,,0.00,meteohub,2013-01-22 10:55:00,
2013-01-22 03:00:00,34.3,33.1,30.14,South,182,0.0,0.0,95,0.00,,,0.00,meteohub,2013-01-22 11:00:00,
2013-01-22 03:05:00,34.3,33.1,30.14,South,183,0.0,0.0,95,0.00,,,0.00,meteohub,2013-01-22 11:05:00,
2013-01-22 03:10:00,34.5,33.3,30.14,South,183,0.0,0.0,95,0.00,,,0.00,meteohub,2013-01-22 11:10:00,
2013-01-22 03:15:00,34.5,33.3,30.14,South,183,0.0,0.0,95,0.00,,,0.00,meteohub,2013-01-22 11:15:00,
2013-01-22 03:20:00,34.3,33.1,30.14,South,183,0.0,0.0,95,0.00,,,0.00,meteohub,2013-01-22 11:20:00,
2013-01-22 03:25:00,34.3,33.1,30.14,South,183,0.0,0.0,95,0.00,,,0.00,meteohub,2013-01-22 11:25:00,
2013-01-22 03:30:00,34.3,33.1,30.14,South,183,0.0,0.0,95,0.00,,,0.00,meteohub,2013-01-22 11:30:00,
2013-01-22 03:35:00,34.5,33.3,30.14,South,183,0.0,0.0,95,0.00,,,0.00,meteohub,2013-01-22 11:35:00,
2013-01-22 03:40:00,34.5,33.3,30.14,South,183,0.0,0.0,95,0.00,,,0.00,meteohub,2013-01-22 11:40:00,
2013-01-22 03:45:00,34.5,33.3,30.14,South,183,0.0,0.0,95,0.00,,,0.00,meteohub,2013-01-22 11:45:00,
2013-01-22 03:50:00,34.5,33.3,30.14,South,182,0.0,0.0,95,0.00,,,0.00,meteohub,2013-01-22 11:50:00,
2013-01-22 03:55:00,34.5,33.3,30.14,South,183,0.0,0.0,95,0.00,,,0.00,meteohub,2013-01-22 11:55:00,
2013-01-22 04:01:00,34.5,33.3,30.14,South,183,0.0,0.0,95,0.00,,,0.00,meteohub,2013-01-22 12:01:00,
2013-01-22 04:06:00,34.9,33.8,30.14,North,353,0.0,4.0,96,0.00,,,0.00,meteohub,2013-01-22 12:06:00,
2013-01-22 04:11:00,34.9,33.8,30.14,NNE,21,5.0,5.0,96,0.00,,,0.00,meteohub,2013-01-22 12:11:00,
2013-01-22 04:16:00,34.9,33.8,30.14,ENE,57,3.0,6.0,96,0.00,,,0.00,meteohub,2013-01-22 12:16:00,
2013-01-22 04:21:00,34.9,33.8,30.14,NE,40,4.0,6.0,96,0.00,,,0.00,meteohub,2013-01-22 12:21:00,
2013-01-22 04:26:00,34.9,33.8,30.14,NNE,22,0.0,6.0,96,0.00,,,0.00,meteohub,2013-01-22 12:26:00,
2013-01-22 04:31:00,34.7,33.6,30.14,NNE,30,4.0,5.0,96,0.00,,,0.00,meteohub,2013-01-22 12:31:00,
2013-01-22 04:36:00,34.7,34.0,30.14,North,8,3.0,6.0,97,0.00,,,0.00,meteohub,2013-01-22 12:36:00,
2013-01-22 04:41:00,34.7,34.0,30.14,NNE,31,4.0,6.0,97,0.00,,,0.00,meteohub,2013-01-22 12:41:00,
2013-01-22 04:46:00,34.5,33.8,30.14,NNE,15,4.0,6.0,97,0.00,,,0.00,meteohub,2013-01-22 12:46:00,
2013-01-22 04:51:00,34.3,33.6,30.14,North,2,4.0,6.0,97,0.00,,,0.00,meteohub,2013-01-22 12:51:00,
2013-01-22 04:56:00,34.3,33.6,30.11,NNW,336,3.0,6.0,97,0.00,,,0.00,meteohub,2013-01-22 12:56:00,
2013-01-22 05:01:00,34.3,33.6,30.11,North,0,3.0,5.0,97,0.00,,,0.00,meteohub,2013-01-22 13:01:00,
2013-01-22 05:06:00,34.3,33.6,30.11,North,353,4.0,5.0,97,0.00,,,0.00,meteohub,2013-01-22 13:06:00,
2013-01-22 05:11:00,34.3,33.6,30.11,North,353,5.0,5.0,97,0.00,,,0.00,meteohub,2013-01-22 13:11:00,
2013-01-22 05:16:00,34.2,33.6,30.11,North,0,3.0,5.0,98,0.00,,,0.00,meteohub,2013-01-22 13:16:00,
2013-01-22 05:21:00,34.2,33.6,30.11,NNE,22,3.0,5.0,98,0.00,,,0.00,meteohub,2013-01-22 13:21:00,
2013-01-22 05:26:00,34.2,33.6,30.11,NE,55,0.0,5.0,98,0.00,,,0.00,meteohub,2013-01-22 13:26:00,
2013-01-22 05:31:00,34.2,33.6,30.11,NNE,23,3.0,4.0,98,0.00,,,0.00,meteohub,2013-01-22 13:31:00,
2013-01-22 05:36:00,34.2,33.6,30.11,NNE,29,0.0,4.0,98,0.00,,,0.00,meteohub,2013-01-22 13:36:00,
2013-01-22 05:41:00,34.3,33.8,30.11,NNE,29,0.0,4.0,98,0.00,,,0.00,meteohub,2013-01-22 13:41:00,
2013-01-22 05:46:00,34.3,33.8,30.11,North,353,3.0,4.0,98,0.00,,,0.00,meteohub,2013-01-22 13:46:00,
2013-01-22 05:52:00,34.3,33.8,30.11,NNE,24,0.0,4.0,98,0.00,,,0.00,meteohub,2013-01-22 13:52:00,
2013-01-22 05:57:00,34.3,33.8,30.11,North,0,3.0,4.0,98,0.00,,,0.00,meteohub,2013-01-22 13:57:00,
2013-01-22 06:02:00,34.5,34.0,30.11,North,353,0.0,4.0,98,0.00,,,0.00,meteohub,2013-01-22 14:02:00,
2013-01-22 06:07:00,34.5,34.0,30.11,North,353,0.0,4.0,98,0.00,,,0.00,meteohub,2013-01-22 14:07:00,
2013-01-22 06:12:00,34.5,34.0,30.11,North,353,0.0,4.0,98,0.00,,,0.00,meteohub,2013-01-22 14:12:00,
2013-01-22 06:17:00,34.5,34.0,30.11,North,353,0.0,0.0,98,0.00,,,0.00,meteohub,2013-01-22 14:17:00,
2013-01-22 06:22:00,34.5,34.0,30.11,North,353,0.0,0.0,98,0.00,,,0.00,meteohub,2013-01-22 14:22:00,
2013-01-22 06:27:00,34.5,34.0,30.11,West,281,0.0,0.0,98,0.00,,,0.00,meteohub,2013-01-22 14:27:00,
2013-01-22 06:32:00,34.5,34.0,30.11,West,281,0.0,0.0,98,0.00,,,0.00,meteohub,2013-01-22 14:32:00,
2013-01-22 06:37:00,34.5,34.0,30.11,West,281,0.0,0.0,98,0.00,,,0.00,meteohub,2013-01-22 14:37:00,
2013-01-22 06:42:00,34.5,34.0,30.11,West,281,0.0,0.0,98,0.00,,,0.00,meteohub,2013-01-22 14:42:00,
2013-01-22 06:47:00,34.3,33.8,30.11,West,281,0.0,0.0,98,0.00,,,0.00,meteohub,2013-01-22 14:47:00,
2013-01-22 06:52:00,34.3,33.8,30.11,West,281,0.0,0.0,98,0.00,,,0.00,meteohub,2013-01-22 14:52:00,
2013-01-22 06:57:00,34.3,33.8,30.08,West,281,0.0,0.0,98,0.00,,,0.00,meteohub,2013-01-22 14:57:00,
2013-01-22 07:02:00,34.2,33.6,30.08,West,281,0.0,0.0,98,0.00,,,0.00,meteohub,2013-01-22 15:02:00,
2013-01-22 07:07:00,34.0,33.4,30.08,West,281,0.0,0.0,98,0.00,,,0.00,meteohub,2013-01-22 15:07:00,
2013-01-22 07:12:00,34.0,33.4,30.08,SW,234,0.0,0.0,98,0.00,,,0.00,meteohub,2013-01-22 15:12:00,
2013-01-22 07:17:00,34.0,33.4,30.08,SW,234,0.0,0.0,98,0.00,,,0.00,meteohub,2013-01-22 15:17:00,
2013-01-22 07:22:00,34.0,33.4,30.08,SW,234,0.0,0.0,98,0.00,,,0.00,meteohub,2013-01-22 15:22:00,
2013-01-22 07:27:00,34.0,33.4,30.08,SW,234,0.0,0.0,98,0.00,,,0.00,meteohub,2013-01-22 15:27:00,
2013-01-22 07:32:00,34.0,33.4,30.08,SW,234,0.0,0.0,98,0.00,,,0.00,meteohub,2013-01-22 15:32:00,
2013-01-22 07:37:00,34.0,33.4,30.08,SW,234,0.0,0.0,98,0.00,,,0.00,meteohub,2013-01-22 15:37:00,
2013-01-22 07:42:00,33.8,33.3,30.08,SW,234,0.0,0.0,98,0.00,,,0.00,meteohub,2013-01-22 15:42:00,
2013-01-22 07:47:00,33.8,33.3,30.08,SW,234,4.0,0.0,98,0.00,,,0.00,meteohub,2013-01-22 15:47:00,
2013-01-22 07:52:00,33.8,33.3,30.08,SW,234,0.0,4.0,98,0.00,,,0.00,meteohub,2013-01-22 15:52:00,
2013-01-22 07:57:00,33.6,33.1,30.08,SW,234,3.0,4.0,98,0.00,,,0.00,meteohub,2013-01-22 15:57:00,
2013-01-22 08:02:00,33.6,33.1,30.08,SW,234,0.0,4.0,98,0.00,,,0.00,meteohub,2013-01-22 16:02:00,
2013-01-22 08:07:00,33.8,33.3,30.08,SW,234,0.0,4.0,98,0.00,,,0.00,meteohub,2013-01-22 16:07:00,
2013-01-22 08:12:00,33.8,33.3,30.08,SW,234,0.0,4.0,98,0.00,,,0.00,meteohub,2013-01-22 16:12:00,
2013-01-22 08:18:00,33.8,33.3,30.08,NW,306,4.0,0.0,98,0.00,,,0.00,meteohub,2013-01-22 16:18:00,
2013-01-22 08:23:00,34.0,33.4,30.08,NW,306,0.0,4.0,98,0.00,,,0.00,meteohub,2013-01-22 16:23:00,
2013-01-22 08:28:00,34.0,33.4,30.08,NW,306,0.0,4.0,98,0.00,,,0.00,meteohub,2013-01-22 16:28:00,
2013-01-22 08:33:00,34.0,33.4,30.08,NW,306,0.0,4.0,98,0.00,,,0.00,meteohub,2013-01-22 16:33:00,
2013-01-22 08:38:00,34.0,33.4,30.08,WSW,258,0.0,3.0,98,0.00,,,0.00,meteohub,2013-01-22 16:38:00,
2013-01-22 08:43:00,33.8,33.3,30.08,WSW,257,0.0,3.0,98,0.00,,,0.00,meteohub,2013-01-22 16:43:00,
2013-01-22 08:48:00,33.8,33.3,30.08,WSW,258,0.0,0.0,98,0.00,,,0.00,meteohub,2013-01-22 16:48:00,
2013-01-22 08:53:00,34.0,33.4,30.08,WSW,258,0.0,0.0,98,0.00,,,0.00,meteohub,2013-01-22 16:53:00,
2013-01-22 08:58:00,34.2,33.6,30.08,WSW,258,0.0,0.0,98,0.00,,,0.00,meteohub,2013-01-22 16:58:00,
2013-01-22 09:03:00,34.3,33.8,30.08,ENE,63,2.0,0.0,98,0.00,,,0.00,meteohub,2013-01-22 17:03:00,
2013-01-22 09:08:00,34.0,33.4,30.08,SSE,150,0.0,4.0,98,0.00,,,0.00,meteohub,2013-01-22 17:08:00,
2013-01-22 09:13:00,33.8,33.3,30.08,SSE,150,0.0,4.0,98,0.00,,,0.00,meteohub,2013-01-22 17:13:00,
2013-01-22 09:18:00,33.8,33.3,30.08,South,191,0.0,4.0,98,0.00,,,0.00,meteohub,2013-01-22 17:18:00,
2013-01-22 09:23:00,33.8,33.3,30.08,South,191,0.0,0.0,98,0.00,,,0.00,meteohub,2013-01-22 17:23:00,
2013-01-22 09:28:00,34.0,33.4,30.08,South,191,0.0,0.0,98,0.00,,,0.00,meteohub,2013-01-22 17:28:00,
2013-01-22 09:33:00,34.2,33.6,30.08,SE,135,0.0,0.0,98,0.00,,,0.00,meteohub,2013-01-22 17:33:00,
2013-01-22 09:38:00,33.8,33.3,30.08,ESE,112,3.0,0.0,98,0.00,,,0.00,meteohub,2013-01-22 17:38:00,
2013-01-22 09:43:00,34.0,33.4,30.08,SE,140,3.0,4.0,98,0.00,,,0.00,meteohub,2013-01-22 17:43:00,
2013-01-22 09:48:00,34.0,33.4,30.08,SSW,199,0.0,4.0,98,0.00,,,0.00,meteohub,2013-01-22 17:48:00,
2013-01-22 09:53:00,33.8,33.3,30.08,South,189,0.0,4.0,98,0.00,,,0.00,meteohub,2013-01-22 17:53:00,
2013-01-22 09:58:00,34.0,33.4,30.08,South,189,0.0,4.0,98,0.00,,,0.00,meteohub,2013-01-22 17:58:00,
2013-01-22 10:03:00,34.2,33.6,30.08,WSW,245,0.0,0.0,98,0.00,,,0.00,meteohub,2013-01-22 18:03:00,
2013-01-22 10:08:00,34.5,34.0,30.08,North,0,0.0,0.0,98,0.00,,,0.00,meteohub,2013-01-22 18:08:00,
2013-01-22 10:13:00,34.9,34.3,30.08,SE,134,0.0,0.0,98,0.00,,,0.00,meteohub,2013-01-22 18:13:00,
2013-01-22 10:18:00,34.9,34.3,30.08,SE,134,0.0,0.0,98,0.00,,,0.00,meteohub,2013-01-22 18:18:00,
2013-01-22 10:23:00,35.1,34.5,30.08,SE,135,0.0,0.0,98,0.00,,,0.00,meteohub,2013-01-22 18:23:00,
2013-01-22 10:29:00,35.2,34.7,30.08,WNW,298,0.0,0.0,98,0.00,,,0.00,meteohub,2013-01-22 18:29:00,
2013-01-22 10:34:00,35.4,34.9,30.08,NNW,344,4.0,0.0,98,0.00,,,0.00,meteohub,2013-01-22 18:34:00,
2013-01-22 10:39:00,35.6,35.1,30.08,NW,324,4.0,4.0,98,0.00,,,0.00,meteohub,2013-01-22 18:39:00,
2013-01-22 10:44:00,35.4,34.9,30.08,NNW,335,3.0,4.0,98,0.00,,,0.00,meteohub,2013-01-22 18:44:00,
2013-01-22 10:49:00,35.4,34.9,30.08,NW,324,0.0,4.0,98,0.00,,,0.00,meteohub,2013-01-22 18:49:00,
2013-01-22 10:54:00,35.4,34.9,30.08,NW,324,0.0,4.0,98,0.00,,,0.00,meteohub,2013-01-22 18:54:00,
2013-01-22 10:59:00,35.4,34.9,30.08,NW,324,0.0,4.0,98,0.00,,,0.00,meteohub,2013-01-22 18:59:00,
2013-01-22 11:04:00,35.6,35.1,30.08,NW,324,0.0,4.0,98,0.00,,,0.00,meteohub,2013-01-22 19:04:00,
2013-01-22 11:09:00,35.8,35.2,30.08,NW,306,3.0,0.0,98,0.00,,,0.00,meteohub,2013-01-22 19:09:00,
2013-01-22 11:14:00,35.8,35.2,30.08,WNW,292,0.0,0.0,98,0.00,,,0.00,meteohub,2013-01-22 19:14:00,
2013-01-22 11:19:00,35.8,35.2,30.08,WNW,292,0.0,3.0,98,0.00,,,0.00,meteohub,2013-01-22 19:19:00,
2013-01-22 11:24:00,35.8,35.2,30.08,WSW,248,3.0,3.0,98,0.00,,,0.00,meteohub,2013-01-22 19:24:00,
2013-01-22 11:29:00,36.1,35.6,30.08,WSW,248,0.0,4.0,98,0.00,,,0.00,meteohub,2013-01-22 19:29:00,
2013-01-22 11:34:00,36.1,35.6,30.08,WSW,248,0.0,4.0,98,0.00,,,0.00,meteohub,2013-01-22 19:34:00,
2013-01-22 11:39:00,36.1,35.6,30.08,WSW,248,0.0,4.0,98,0.00,,,0.00,meteohub,2013-01-22 19:39:00,
2013-01-22 11:44:00,36.3,35.8,30.08,WSW,248,0.0,4.0,98,0.00,,,0.00,meteohub,2013-01-22 19:44:00,
2013-01-22 11:49:00,35.6,34.5,30.08,WSW,248,0.0,3.0,96,0.00,,,0.00,meteohub,2013-01-22 19:49:00,
2013-01-22 11:54:00,36.0,34.2,30.08,WSW,244,3.0,4.0,93,0.00,,,0.00,meteohub,2013-01-22 19:54:00,
2013-01-22 11:59:00,36.1,34.0,30.08,WNW,302,0.0,4.0,92,0.00,,,0.00,meteohub,2013-01-22 19:59:00,
2013-01-22 12:04:00,36.3,34.2,30.08,WNW,302,0.0,4.0,92,0.00,,,0.00,meteohub,2013-01-22 20:04:00,
2013-01-22 12:09:00,36.7,34.5,30.05,WNW,302,0.0,4.0,92,0.00,,,0.00,meteohub,2013-01-22 20:09:00,
2013-01-22 12:14:00,37.0,34.9,30.05,NW,311,0.0,4.0,92,0.00,,,0.00,meteohub,2013-01-22 20:14:00,
2013-01-22 12:19:00,37.0,34.9,30.05,NW,311,0.0,0.0,92,0.00,,,0.00,meteohub,2013-01-22 20:19:00,
2013-01-22 12:24:00,37.8,35.4,30.05,NW,318,0.0,0.0,91,0.00,,,0.00,meteohub,2013-01-22 20:24:00,
2013-01-22 12:29:00,37.6,33.3,30.05,NW,315,0.0,0.0,84,0.00,,,0.00,meteohub,2013-01-22 20:29:00,
2013-01-22 12:34:00,38.1,31.8,30.05,NW,324,2.0,0.0,78,0.00,,,0.00,meteohub,2013-01-22 20:34:00,
2013-01-22 12:39:00,37.9,30.7,30.05,NE,45,0.0,4.0,75,0.00,,,0.00,meteohub,2013-01-22 20:39:00,
2013-01-22 12:44:00,38.1,30.9,30.05,ENE,76,0.0,4.0,75,0.00,,,0.00,meteohub,2013-01-22 20:44:00,
2013-01-22 12:49:00,37.9,29.3,30.05,SE,124,0.0,4.0,71,0.00,,,0.00,meteohub,2013-01-22 20:49:00,
2013-01-22 12:54:00,37.6,27.7,30.02,SE,124,0.0,3.0,67,0.00,,,0.00,meteohub,2013-01-22 20:54:00,
2013-01-22 12:59:00,37.4,27.1,30.02,South,176,0.0,0.0,66,0.00,,,0.00,meteohub,2013-01-22 20:59:00,
2013-01-22 13:04:00,37.6,27.7,30.02,SE,125,0.0,0.0,67,0.00,,,0.00,meteohub,2013-01-22 21:04:00,
2013-01-22 13:09:00,37.8,28.2,30.05,SE,133,0.0,0.0,68,0.00,,,0.00,meteohub,2013-01-22 21:09:00,
2013-01-22 13:14:00,38.3,28.9,30.05,ESE,119,3.0,0.0,69,0.00,,,0.00,meteohub,2013-01-22 21:14:00,
2013-01-22 13:19:00,39.2,28.4,30.05,East,94,0.0,4.0,65,0.00,,,0.00,meteohub,2013-01-22 21:19:00,
2013-01-22 13:24:00,39.7,28.2,30.02,East,89,0.0,4.0,63,0.00,,,0.00,meteohub,2013-01-22 21:24:00,
2013-01-22 13:29:00,39.6,24.8,30.02,SE,130,4.0,4.0,55,0.00,,,0.00,meteohub,2013-01-22 21:29:00,
2013-01-22 13:31:00,39.6,24.8,30.02,East,101,3.0,3.0,55,0.00,,,0.00,meteohub,2013-01-22 21:31:00,
2013-01-22 13:36:00,39.6,25.2,30.02,East,97,3.0,4.0,56,0.00,,,0.00,meteohub,2013-01-22 21:36:00,
2013-01-22 13:42:00,39.4,25.3,30.02,ESE,123,0.0,5.0,57,0.00,,,0.00,meteohub,2013-01-22 21:42:00,
2013-01-22 13:47:00,39.0,24.6,30.02,ESE,123,0.0,5.0,56,0.00,,,0.00,meteohub,2013-01-22 21:47:00,
2013-01-22 13:52:00,39.2,25.2,30.02,East,99,0.0,4.0,57,0.00,,,0.00,meteohub,2013-01-22 21:52:00,
2013-01-22 13:57:00,39.4,25.9,30.02,East,98,2.0,0.0,58,0.00,,,0.00,meteohub,2013-01-22 21:57:00,
2013-01-22 14:02:00,39.4,26.2,30.02,East,98,0.0,4.0,59,0.00,,,0.00,meteohub,2013-01-22 22:02:00,
2013-01-22 14:07:00,39.2,26.1,30.02,East,98,0.0,4.0,59,0.00,,,0.00,meteohub,2013-01-22 22:07:00,
2013-01-22 14:12:00,39.4,27.5,30.02,ESE,112,0.0,4.0,62,0.00,,,0.00,meteohub,2013-01-22 22:12:00,
2013-01-22 14:17:00,39.4,27.5,30.02,ESE,122,4.0,4.0,62,0.00,,,0.00,meteohub,2013-01-22 22:17:00,
2013-01-22 14:22:00,39.4,28.2,30.02,East,99,3.0,4.0,64,0.00,,,0.00,meteohub,2013-01-22 22:22:00,
2013-01-22 14:27:00,39.6,28.8,30.02,SE,124,3.0,4.0,65,0.00,,,0.00,meteohub,2013-01-22 22:27:00,
2013-01-22 14:32:00,39.4,28.2,30.02,SE,125,0.0,4.0,64,0.00,,,0.00,meteohub,2013-01-22 22:32:00,
2013-01-22 14:37:00,39.6,28.8,30.02,SE,125,4.0,4.0,65,0.00,,,0.00,meteohub,2013-01-22 22:37:00,
2013-01-22 14:42:00,39.6,28.4,30.02,SE,133,0.0,4.0,64,0.00,,,0.00,meteohub,2013-01-22 22:42:00,
2013-01-22 14:47:00,39.6,28.4,30.02,SE,139,0.0,4.0,64,0.00,,,0.00,meteohub,2013-01-22 22:47:00,
2013-01-22 14:52:00,39.7,29.3,30.02,East,98,3.0,4.0,66,0.00,,,0.00,meteohub,2013-01-22 22:52:00,
2013-01-22 14:57:00,39.9,29.8,30.02,East,94,3.0,4.0,67,0.00,,,0.00,meteohub,2013-01-22 22:57:00,
2013-01-22 15:02:00,40.1,30.4,30.02,East,94,4.0,4.0,68,0.00,,,0.00,meteohub,2013-01-22 23:02:00,
2013-01-22 15:07:00,39.9,29.5,30.02,SW,214,3.0,4.0,66,0.00,,,0.00,meteohub,2013-01-22 23:07:00,
2013-01-22 15:12:00,39.9,29.5,30.02,SSW,197,3.0,4.0,66,0.00,,,0.00,meteohub,2013-01-22 23:12:00,
2013-01-22 15:17:00,39.9,29.5,30.02,SSE,147,4.0,4.0,66,0.00,,,0.00,meteohub,2013-01-22 23:17:00,
2013-01-22 15:22:00,40.1,30.4,29.99,South,187,2.0,4.0,68,0.00,,,0.00,meteohub,2013-01-22 23:22:00,
2013-01-22 15:27:00,40.5,28.9,29.99,SSW,198,0.0,4.0,63,0.00,,,0.00,meteohub,2013-01-22 23:27:00,
2013-01-22 15:32:00,39.9,28.4,29.99,SSW,198,0.0,4.0,63,0.00,,,0.00,meteohub,2013-01-22 23:32:00,
2013-01-22 15:37:00,39.7,29.3,29.99,SSW,198,0.0,4.0,66,0.00,,,0.00,meteohub,2013-01-22 23:37:00,
2013-01-22 15:43:00,39.7,30.7,29.99,South,173,0.0,0.0,70,0.00,,,0.00,meteohub,2013-01-22 23:43:00,
2013-01-22 15:48:00,39.7,31.5,29.99,South,173,0.0,0.0,72,0.00,,,0.00,meteohub,2013-01-22 23:48:00,
2013-01-22 15:53:00,39.4,31.1,29.99,South,173,0.0,0.0,72,0.00,,,0.00,meteohub,2013-01-22 23:53:00,
2013-01-22 15:58:00,39.4,32.2,29.99,South,173,0.0,0.0,75,0.00,,,0.00,meteohub,2013-01-22 23:58:00,
2013-01-22 16:03:00,39.4,32.2,29.99,South,173,0.0,0.0,75,0.00,,,0.00,meteohub,2013-01-23 00:03:00,
2013-01-22 16:08:00,39.2,32.5,29.99,South,173,0.0,0.0,77,0.00,,,0.00,meteohub,2013-01-23 00:08:00,
2013-01-22 16:13:00,39.2,32.5,29.99,South,173,0.0,0.0,77,0.00,,,0.00,meteohub,2013-01-23 00:13:00,
2013-01-22 16:18:00,39.0,33.1,29.99,South,173,0.0,0.0,79,0.00,,,0.00,meteohub,2013-01-23 00:18:00,
2013-01-22 16:23:00,38.8,33.8,29.99,South,173,0.0,0.0,82,0.00,,,0.00,meteohub,2013-01-23 00:23:00,
2013-01-22 16:28:00,38.7,34.5,29.99,South,173,0.0,0.0,85,0.00,,,0.00,meteohub,2013-01-23 00:28:00,
2013-01-22 16:33:00,38.5,34.7,29.99,South,173,0.0,0.0,86,0.00,,,0.00,meteohub,2013-01-23 00:33:00,
2013-01-22 16:38:00,38.5,34.9,29.99,South,173,0.0,0.0,87,0.00,,,0.00,meteohub,2013-01-23 00:38:00,
2013-01-22 16:43:00,38.3,35.1,29.99,South,173,0.0,0.0,88,0.00,,,0.00,meteohub,2013-01-23 00:43:00,
2013-01-22 16:48:00,38.3,35.4,29.99,SW,217,0.0,0.0,89,0.00,,,0.00,meteohub,2013-01-23 00:48:00,
2013-01-22 16:53:00,37.9,35.1,29.99,SW,217,0.0,0.0,89,0.00,,,0.00,meteohub,2013-01-23 00:53:00,
2013-01-22 16:58:00,37.8,35.1,29.99,SW,217,0.0,0.0,90,0.00,,,0.00,meteohub,2013-01-23 00:58:00,
2013-01-22 17:03:00,37.8,35.4,29.99,SW,217,0.0,0.0,91,0.00,,,0.00,meteohub,2013-01-23 01:03:00,
2013-01-22 17:08:00,37.6,35.4,29.96,SW,217,0.0,0.0,92,0.00,,,0.00,meteohub,2013-01-23 01:08:00,
2013-01-22 17:13:00,37.4,35.2,29.96,SW,217,0.0,0.0,92,0.00,,,0.00,meteohub,2013-01-23 01:13:00,
2013-01-22 17:18:00,37.4,35.6,29.96,SW,217,0.0,0.0,93,0.00,,,0.00,meteohub,2013-01-23 01:18:00,
2013-01-22 17:23:00,37.4,35.6,29.96,SW,217,0.0,0.0,93,0.00,,,0.00,meteohub,2013-01-23 01:23:00,
2013-01-22 17:28:00,37.6,36.3,29.96,SW,217,0.0,0.0,95,0.00,,,0.00,meteohub,2013-01-23 01:28:00,
2013-01-22 17:33:00,37.6,36.5,29.96,SW,217,0.0,0.0,96,0.00,,,0.00,meteohub,2013-01-23 01:33:00,
2013-01-22 17:38:00,37.6,36.9,29.96,SW,217,0.0,0.0,97,0.00,,,0.00,meteohub,2013-01-23 01:38:00,
2013-01-22 17:43:00,37.6,36.9,29.96,SW,217,0.0,0.0,97,0.00,,,0.00,meteohub,2013-01-23 01:43:00,
2013-01-22 17:48:00,37.6,36.9,29.96,SW,217,0.0,0.0,97,0.00,,,0.00,meteohub,2013-01-23 01:48:00,
2013-01-22 17:53:00,37.6,37.0,29.96,SW,217,0.0,0.0,98,0.00,,,0.00,meteohub,2013-01-23 01:53:00,
2013-01-22 17:58:00,37.6,37.0,29.96,SW,217,0.0,0.0,98,0.00,,,0.00,meteohub,2013-01-23 01:58:00,
2013-01-22 18:03:00,37.6,37.0,29.96,SW,217,0.0,0.0,98,0.00,,,0.00,meteohub,2013-01-23 02:03:00,
2013-01-22 18:08:00,37.4,36.9,29.96,SW,217,0.0,0.0,98,0.00,,,0.00,meteohub,2013-01-23 02:08:00,
2013-01-22 18:13:00,37.4,36.9,29.96,SW,217,0.0,0.0,98,0.00,,,0.00,meteohub,2013-01-23 02:13:00,
2013-01-22 18:18:00,37.2,36.7,29.96,SW,217,0.0,0.0,98,0.00,,,0.00,meteohub,2013-01-23 02:18:00,
2013-01-22 18:23:00,37.2,36.7,29.96,South,170,0.0,0.0,98,0.00,,,0.00,meteohub,2013-01-23 02:23:00,
2013-01-22 18:29:00,37.0,36.5,29.96,SSE,149,0.0,0.0,98,0.00,,,0.00,meteohub,2013-01-23 02:29:00,
2013-01-22 18:34:00,37.4,36.9,29.96,SSE,149,0.0,0.0,98,0.00,,,0.00,meteohub,2013-01-23 02:34:00,
2013-01-22 18:39:00,37.6,37.0,29.96,SSE,159,3.0,0.0,98,0.00,,,0.00,meteohub,2013-01-23 02:39:00,
2013-01-22 18:44:00,37.9,37.4,29.96,SSE,160,0.0,4.0,98,0.00,,,0.00,meteohub,2013-01-23 02:44:00,
2013-01-22 18:49:00,38.3,37.8,29.96,SSW,204,0.0,4.0,98,0.00,,,0.00,meteohub,2013-01-23 02:49:00,
2013-01-22 18:54:00,38.5,37.9,29.96,South,183,0.0,4.0,98,0.00,,,0.00,meteohub,2013-01-23 02:54:00,
2013-01-22 18:59:00,38.5,37.9,29.96,South,182,3.0,0.0,98,0.00,,,0.00,meteohub,2013-01-23 02:59:00,
2013-01-22 19:04:00,38.5,37.9,29.96,South,191,3.0,3.0,98,0.00,,,0.00,meteohub,2013-01-23 03:04:00,
2013-01-22 19:09:00,38.7,37.6,29.94,SSW,204,0.0,4.0,96,0.00,,,0.00,meteohub,2013-01-23 03:09:00,
2013-01-22 19:14:00,38.7,37.0,29.94,SSW,200,4.0,4.0,94,0.00,,,0.00,meteohub,2013-01-23 03:14:00,
2013-01-22 19:19:00,38.3,36.0,29.94,SW,220,3.0,4.0,91,0.00,,,0.00,meteohub,2013-01-23 03:19:00,
2013-01-22 19:24:00,38.1,35.8,29.94,SW,214,0.0,4.0,91,0.00,,,0.00,meteohub,2013-01-23 03:24:00,
2013-01-22 19:29:00,37.9,35.6,29.94,SW,214,0.0,4.0,91,0.00,,,0.00,meteohub,2013-01-23 03:29:00,
2013-01-22 19:34:00,38.3,36.5,29.94,SW,214,0.0,4.0,93,0.00,,,0.00,meteohub,2013-01-23 03:34:00,
2013-01-22 19:39:00,38.1,36.3,29.94,SSW,213,0.0,4.0,93,0.00,,,0.00,meteohub,2013-01-23 03:39:00,
2013-01-22 19:44:00,38.3,36.1,29.94,SSW,208,0.0,0.0,92,0.00,,,0.00,meteohub,2013-01-23 03:44:00,
2013-01-22 19:49:00,38.3,36.0,29.94,SSW,201,0.0,0.0,91,0.00,,,0.00,meteohub,2013-01-23 03:49:00,
2013-01-22 19:54:00,38.5,35.6,29.94,SW,216,3.0,0.0,89,0.00,,,0.00,meteohub,2013-01-23 03:54:00,
2013-01-22 19:59:00,38.1,34.9,29.94,South,185,2.0,4.0,88,0.00,,,0.00,meteohub,2013-01-23 03:59:00,
2013-01-22 20:04:00,37.9,35.1,29.94,SW,223,2.0,4.0,89,0.00,,,0.00,meteohub,2013-01-23 04:04:00,
2013-01-22 20:09:00,37.6,34.7,29.94,South,184,3.0,4.0,89,0.00,,,0.00,meteohub,2013-01-23 04:09:00,
2013-01-22 20:14:00,37.6,35.2,29.94,SW,223,3.0,4.0,91,0.00,,,0.00,meteohub,2013-01-23 04:14:00,
2013-01-22 20:19:00,37.4,35.6,29.94,SW,223,2.0,4.0,93,0.00,,,0.00,meteohub,2013-01-23 04:19:00,
2013-01-22 20:24:00,37.4,35.8,29.94,SW,223,3.0,4.0,94,0.00,,,0.00,meteohub,2013-01-23 04:24:00,
2013-01-22 20:29:00,37.4,35.8,29.94,SW,223,3.0,4.0,94,0.00,,,0.00,meteohub,2013-01-23 04:29:00,
2013-01-22 20:34:00,37.2,36.0,29.94,SW,223,3.0,4.0,95,0.00,,,0.00,meteohub,2013-01-23 04:34:00,
2013-01-22 20:39:00,37.0,35.8,29.94,SW,223,3.0,3.0,95,0.00,,,0.00,meteohub,2013-01-23 04:39:00,
2013-01-22 20:44:00,37.0,35.8,29.94,SW,223,2.0,3.0,95,0.00,,,0.00,meteohub,2013-01-23 04:44:00,
2013-01-22 20:49:00,37.0,36.0,29.94,SW,223,0.0,3.0,96,0.00,,,0.00,meteohub,2013-01-23 04:49:00,
2013-01-22 20:54:00,37.0,36.3,29.94,SW,223,2.0,3.0,97,0.00,,,0.00,meteohub,2013-01-23 04:54:00,
2013-01-22 20:59:00,37.2,36.7,29.94,WSW,240,3.0,4.0,98,0.00,,,0.00,meteohub,2013-01-23 04:59:00,
2013-01-22 21:00:00,37.2,36.7,29.94,WSW,240,3.0,4.0,98,0.00,,,0.00,meteohub,2013-01-23 05:00:00,
2013-01-22 21:03:00,37.4,36.9,29.94,WSW,240,0.0,5.0,98,0.00,,,0.00,meteohub,2013-01-23 05:03:00,
2013-01-22 21:08:00,37.6,37.0,29.94,WSW,240,0.0,5.0,98,0.00,,,0.00,meteohub,2013-01-23 05:08:00,
2013-01-22 21:13:00,37.6,37.0,29.94,WSW,240,0.0,5.0,98,0.00,,,0.00,meteohub,2013-01-23 05:13:00,
2013-01-22 21:18:00,37.6,36.9,29.94,WSW,240,0.0,0.0,97,0.00,,,0.00,meteohub,2013-01-23 05:18:00,
2013-01-22 21:23:00,37.6,36.9,29.94,WSW,240,0.0,0.0,97,0.00,,,0.00,meteohub,2013-01-23 05:23:00,
2013-01-22 21:28:00,37.6,36.9,29.94,WSW,240,0.0,0.0,97,0.00,,,0.00,meteohub,2013-01-23 05:28:00,
2013-01-22 21:30:00,37.6,36.9,29.94,WSW,240,0.0,0.0,97,0.00,,,0.00,meteohub,2013-01-23 05:30:00,
2013-01-22 21:37:00,37.4,36.7,29.94,WSW,240,0.0,0.0,97,0.00,,,0.00,meteohub,2013-01-23 05:37:00,
2013-01-22 21:42:00,37.6,36.9,29.94,WSW,240,0.0,0.0,97,0.00,,,0.00,meteohub,2013-01-23 05:42:00,
2013-01-22 21:47:00,37.6,36.9,29.94,WSW,240,0.0,0.0,97,0.00,,,0.00,meteohub,2013-01-23 05:47:00,
2013-01-22 21:52:00,37.6,36.9,29.94,WSW,240,0.0,0.0,97,0.00,,,0.00,meteohub,2013-01-23 05:52:00,
2013-01-22 21:57:00,37.6,36.9,29.94,WSW,240,0.0,0.0,97,0.00,,,0.00,meteohub,2013-01-23 05:57:00,
2013-01-22 22:02:00,37.6,36.9,29.94,WSW,240,0.0,0.0,97,0.00,,,0.00,meteohub,2013-01-23 06:02:00,
2013-01-22 22:07:00,37.6,36.9,29.94,WSW,240,0.0,0.0,97,0.00,,,0.00,meteohub,2013-01-23 06:07:00,
2013-01-22 22:12:00,37.6,36.9,29.94,WSW,240,0.0,0.0,97,0.00,,,0.00,meteohub,2013-01-23 06:12:00,
2013-01-22 22:17:00,37.6,36.9,29.94,WSW,240,0.0,0.0,97,0.00,,,0.00,meteohub,2013-01-23 06:17:00,
2013-01-22 22:22:00,37.6,36.9,29.94,WSW,240,0.0,0.0,97,0.00,,,0.00,meteohub,2013-01-23 06:22:00,
2013-01-22 22:27:00,37.8,37.0,29.94,WSW,240,0.0,0.0,97,0.00,,,0.00,meteohub,2013-01-23 06:27:00,
2013-01-22 22:32:00,37.8,37.0,29.94,WSW,239,0.0,0.0,97,0.00,,,0.00,meteohub,2013-01-23 06:32:00,
2013-01-22 22:37:00,37.8,37.0,29.94,WSW,240,0.0,0.0,97,0.00,,,0.00,meteohub,2013-01-23 06:37:00,
2013-01-22 22:42:00,37.8,37.0,29.94,WSW,240,0.0,0.0,97,0.00,,,0.00,meteohub,2013-01-23 06:42:00,
2013-01-22 22:47:00,37.8,37.0,29.94,WSW,240,0.0,0.0,97,0.00,,,0.00,meteohub,2013-01-23 06:47:00,
2013-01-22 22:52:00,37.8,37.0,29.94,WSW,240,0.0,0.0,97,0.00,,,0.00,meteohub,2013-01-23 06:52:00,
2013-01-22 22:57:00,37.6,36.9,29.94,WSW,240,0.0,0.0,97,0.00,,,0.00,meteohub,2013-01-23 06:57:00,
2013-01-22 23:02:00,37.6,36.9,29.94,WSW,240,0.0,0.0,97,0.00,,,0.00,meteohub,2013-01-23 07:02:00,
2013-01-22 23:07:00,37.6,36.9,29.94,WSW,240,0.0,0.0,97,0.00,,,0.00,meteohub,2013-01-23 07:07:00,
2013-01-22 23:12:00,37.6,36.9,29.94,WSW,240,0.0,0.0,97,0.00,,,0.00,meteohub,2013-01-23 07:12:00,
2013-01-22 23:17:00,37.8,37.0,29.94,WSW,240,0.0,0.0,97,0.00,,,0.00,meteohub,2013-01-23 07:17:00,
2013-01-22 23:22:00,37.8,37.0,29.94,SW,225,4.0,0.0,97,0.00,,,0.00,meteohub,2013-01-23 07:22:00,
2013-01-22 23:28:00,37.8,36.7,29.94,SW,231,4.0,4.0,96,0.00,,,0.00,meteohub,2013-01-23 07:28:00,
2013-01-22 23:33:00,37.9,36.9,29.94,NW,323,3.0,5.0,96,0.00,,,0.00,meteohub,2013-01-23 07:33:00,
2013-01-22 23:38:00,37.9,36.9,29.94,West,263,0.0,5.0,96,0.00,,,0.00,meteohub,2013-01-23 07:38:00,
2013-01-22 23:43:00,37.9,36.7,29.94,SE,139,5.0,5.0,95,0.00,,,0.00,meteohub,2013-01-23 07:43:00,
2013-01-22 23:48:00,38.1,36.9,29.94,West,260,4.0,5.0,95,0.00,,,0.00,meteohub,2013-01-23 07:48:00,
2013-01-22 23:53:00,37.9,36.3,29.94,South,177,3.0,5.0,94,0.00,,,0.00,meteohub,2013-01-23 07:53:00,
2013-01-22 23:58:00,37.9,36.1,29.94,SSW,193,2.0,5.0,93,0.00,,,0.00,meteohub,2013-01-23 07:58:00,